When you browse on this site, cookies collect data to enhance your experience and personalize the content and advertising you see.
Visit our Privacy Policy to learn more. By continuing to use the site, you agree to this use of cookies and data.
  • în România
  • Lista ţărilor
  • Pe 7 zile
  • Temperatura apei
  • Meteo pe hartă
  • Widget-uri
  • user-avatar
    Intrare

    Meteo pe oră la Kaprun

    Astăzi, 3 Iunie, Miercuri

    Timp Temperatura Precipitaţii Vânt Presiune Umiditate
    00:00 +2°C° 0 mm 1 m/s 594 mmHg 90%
    01:00 +2°C° 0 mm 1 m/s 593 mmHg 89%
    02:00 +2°C° 0 mm 1 m/s 593 mmHg 86%
    03:00 +2°C° 0 mm 1 m/s 592 mmHg 83%
    04:00 +2°C° 0 mm 1 m/s 592 mmHg 80%
    05:00 +4°C° 0 mm 1 m/s 593 mmHg 73%
    06:00 +6°C° 0 mm 1 m/s 594 mmHg 66%
    07:00 +7°C° 0 mm 0 m/s 594 mmHg 58%
    08:00 +9°C° 0 mm 0 m/s 595 mmHg 51%
    09:00 +12°C° 0 mm 1 m/s 595 mmHg 43%
    10:00 +14°C° 0 mm 1 m/s 596 mmHg 35%
    11:00 +14°C° 0 mm 1 m/s 596 mmHg 33%
    12:00 +15°C° 0 mm 1 m/s 596 mmHg 31%
    13:00 +15°C° 0 mm 1 m/s 595 mmHg 30%
    14:00 +15°C° 0 mm 1 m/s 595 mmHg 33%
    15:00 +15°C° 0 mm 1 m/s 594 mmHg 35%
    16:00 +14°C° 0 mm 1 m/s 594 mmHg 38%
    17:00 +13°C° 0.1 mm 1 m/s 593 mmHg 49%
    18:00 +11°C° 0.1 mm 1 m/s 592 mmHg 60%
    19:00 +10°C° 0.1 mm 1 m/s 591 mmHg 71%
    20:00 +8°C° 0 mm 1 m/s 591 mmHg 74%
    21:00 +6°C° 0 mm 2 m/s 590 mmHg 77%
    22:00 +4°C° 0 mm 2 m/s 589 mmHg 80%
    23:00 +4°C° 0 mm 2 m/s 589 mmHg 81%

    Mâine, 4 Iunie, Joi

    Timp Temperatura Precipitaţii Vânt Presiune Umiditate
    00:00 +4°C° 0 mm 2 m/s 589 mmHg 83%
    01:00 +4°C° 0 mm 2 m/s 589 mmHg 84%
    02:00 +4°C° 0 mm 2 m/s 589 mmHg 86%
    03:00 +4°C° 0 mm 2 m/s 588 mmHg 88%
    04:00 +4°C° 0 mm 2 m/s 588 mmHg 90%
    05:00 +5°C° 0 mm 2 m/s 588 mmHg 86%
    06:00 +6°C° 0 mm 2 m/s 589 mmHg 82%
    07:00 +8°C° 0 mm 1 m/s 589 mmHg 78%
    08:00 +8°C° 0.1 mm 2 m/s 590 mmHg 74%
    09:00 +10°C° 0.1 mm 2 m/s 590 mmHg 70%
    10:00 +12°C° 0.1 mm 2 m/s 590 mmHg 66%
    11:00 +12°C° 0.3 mm 2 m/s 590 mmHg 68%
    12:00 +12°C° 0.3 mm 2 m/s 590 mmHg 70%
    13:00 +12°C° 0.3 mm 2 m/s 589 mmHg 72%
    14:00 +10°C° 0.7 mm 2 m/s 589 mmHg 78%
    15:00 +9°C° 0.7 mm 2 m/s 588 mmHg 83%
    16:00 +8°C° 0.7 mm 2 m/s 587 mmHg 89%
    17:00 +7°C° 0.5 mm 2 m/s 587 mmHg 90%
    18:00 +7°C° 0.5 mm 2 m/s 587 mmHg 92%
    19:00 +6°C° 0.5 mm 2 m/s 586 mmHg 93%
    20:00 +5°C° 0.9 mm 2 m/s 586 mmHg 94%
    21:00 +5°C° 0.9 mm 2 m/s 586 mmHg 96%
    22:00 +5°C° 0.9 mm 1 m/s 586 mmHg 97%
    23:00 +5°C° 1.8 mm 1 m/s 586 mmHg 98%

    Poimâine, 5 Iunie, Vineri

    Timp Temperatura Precipitaţii Vânt Presiune Umiditate
    00:00 +4°C° 1.8 mm 2 m/s 585 mmHg 98%
    01:00 +3°C° 1.8 mm 2 m/s 585 mmHg 98%
    02:00 +3°C° 3.2 mm 2 m/s 585 mmHg 98%
    03:00 +3°C° 3.2 mm 1 m/s 584 mmHg 98%
    04:00 +3°C° 3.2 mm 1 m/s 584 mmHg 98%
    05:00 +3°C° 1.2 mm 1 m/s 584 mmHg 98%
    06:00 +3°C° 1.2 mm 1 m/s 585 mmHg 98%
    07:00 +3°C° 1.2 mm 1 m/s 585 mmHg 98%
    08:00 +3°C° 0.9 mm 1 m/s 586 mmHg 98%
    09:00 +3°C° 0.9 mm 1 m/s 586 mmHg 97%
    10:00 +4°C° 0.9 mm 1 m/s 586 mmHg 97%
    11:00 +4°C° 0.7 mm 1 m/s 587 mmHg 97%
    12:00 +4°C° 0.7 mm 1 m/s 587 mmHg 97%
    13:00 +4°C° 0.7 mm 1 m/s 587 mmHg 97%
    14:00 +5°C° 0.1 mm 1 m/s 587 mmHg 93%
    15:00 +6°C° 0.1 mm 1 m/s 588 mmHg 88%
    16:00 +6°C° 0.1 mm 1 m/s 588 mmHg 84%
    17:00 +6°C° 0 mm 1 m/s 589 mmHg 85%
    18:00 +5°C° 0 mm 0 m/s 589 mmHg 87%
    19:00 +4°C° 0 mm 0 m/s 589 mmHg 88%
    20:00 +3°C° 0 mm 0 m/s 589 mmHg 89%
    21:00 +3°C° 0 mm 1 m/s 589 mmHg 90%
    22:00 +2°C° 0 mm 1 m/s 589 mmHg 90%
    23:00 +2°C° 0 mm 1 m/s 589 mmHg 91%

    6 Iunie, Sâmbătă

    Timp Temperatura Precipitaţii Vânt Presiune Umiditate
    00:00 +2°C° 0 mm 1 m/s 589 mmHg 92%
    01:00 +2°C° 0 mm 1 m/s 589 mmHg 92%
    02:00 +2°C° 0 mm 1 m/s 590 mmHg 93%
    03:00 +1°C° 0 mm 2 m/s 590 mmHg 94%
    04:00 +1°C° 0 mm 2 m/s 590 mmHg 94%
    05:00 +3°C° 0 mm 2 m/s 591 mmHg 91%
    06:00 +4°C° 0 mm 2 m/s 592 mmHg 87%
    07:00 +6°C° 0 mm 2 m/s 592 mmHg 84%
    08:00 +7°C° 0 mm 2 m/s 593 mmHg 80%
    09:00 +8°C° 0 mm 2 m/s 594 mmHg 76%
    10:00 +9°C° 0 mm 2 m/s 594 mmHg 72%
    11:00 +9°C° 0.1 mm 2 m/s 594 mmHg 72%
    12:00 +10°C° 0.1 mm 2 m/s 594 mmHg 71%
    13:00 +10°C° 0.1 mm 2 m/s 594 mmHg 71%
    14:00 +10°C° 0.3 mm 2 m/s 594 mmHg 75%
    15:00 +10°C° 0.3 mm 2 m/s 594 mmHg 78%
    16:00 +9°C° 0.3 mm 2 m/s 593 mmHg 82%
    17:00 +8°C° 0.4 mm 2 m/s 593 mmHg 86%
    18:00 +8°C° 0.4 mm 2 m/s 593 mmHg 90%
    19:00 +7°C° 0.4 mm 2 m/s 592 mmHg 94%
    20:00 +6°C° 0.2 mm 2 m/s 593 mmHg 95%
    21:00 +6°C° 0.2 mm 2 m/s 593 mmHg 96%
    22:00 +6°C° 0.2 mm 1 m/s 593 mmHg 97%
    23:00 +6°C° 0.4 mm 1 m/s 592 mmHg 97%

    7 Iunie, Duminică

    Timp Temperatura Precipitaţii Vânt Presiune Umiditate
    00:00 +6°C° 0.4 mm 1 m/s 592 mmHg 97%
    01:00 +6°C° 0.4 mm 1 m/s 592 mmHg 97%
    02:00 +6°C° 0.4 mm 1 m/s 592 mmHg 97%
    03:00 +5°C° 0.4 mm 1 m/s 592 mmHg 97%
    04:00 +5°C° 0.4 mm 1 m/s 592 mmHg 98%
    05:00 +6°C° 1.1 mm 1 m/s 592 mmHg 98%
    06:00 +6°C° 1.1 mm 1 m/s 592 mmHg 98%
    07:00 +6°C° 1.1 mm 1 m/s 592 mmHg 99%
    08:00 +7°C° 0.8 mm 1 m/s 592 mmHg 97%
    09:00 +7°C° 0.8 mm 1 m/s 592 mmHg 96%
    10:00 +7°C° 0.8 mm 2 m/s 592 mmHg 94%
    11:00 +8°C° 0.2 mm 2 m/s 593 mmHg 86%
    12:00 +10°C° 0.2 mm 2 m/s 593 mmHg 78%
    13:00 +13°C° 0.2 mm 2 m/s 594 mmHg 70%
    14:00 +12°C° 0.6 mm 2 m/s 594 mmHg 74%
    15:00 +10°C° 0.6 mm 2 m/s 594 mmHg 78%
    16:00 +10°C° 0.6 mm 2 m/s 594 mmHg 83%
    17:00 +8°C° 1.5 mm 2 m/s 593 mmHg 88%
    18:00 +6°C° 1.5 mm 2 m/s 593 mmHg 93%
    19:00 +4°C° 1.5 mm 2 m/s 593 mmHg 98%
    20:00 +4°C° 2.3 mm 2 m/s 593 mmHg 98%
    21:00 +3°C° 2.3 mm 2 m/s 593 mmHg 98%
    22:00 +2°C° 2.3 mm 2 m/s 593 mmHg 98%
    23:00 +3°C° 1 mm 1 m/s 593 mmHg 98%

    8 Iunie, Luni

    Timp Temperatura Precipitaţii Vânt Presiune Umiditate
    00:00 +3°C° 1 mm 1 m/s 593 mmHg 97%
    01:00 +2°C° 1 mm 1 m/s 593 mmHg 97%
    02:00 +2°C° 0.3 mm 1 m/s 593 mmHg 97%
    03:00 +2°C° 0.3 mm 1 m/s 593 mmHg 97%
    04:00 +2°C° 0.3 mm 1 m/s 592 mmHg 97%
    05:00 +2°C° 0.2 mm 1 m/s 593 mmHg 95%
    06:00 +3°C° 0.2 mm 1 m/s 593 mmHg 94%
    07:00 +4°C° 0.2 mm 1 m/s 593 mmHg 92%
    08:00 +4°C° 0.4 mm 1 m/s 594 mmHg 91%
    09:00 +5°C° 0.4 mm 1 m/s 594 mmHg 90%
    10:00 +6°C° 0.4 mm 1 m/s 594 mmHg 88%
    11:00 +6°C° 0.3 mm 1 m/s 594 mmHg 90%
    12:00 +6°C° 0.3 mm 1 m/s 594 mmHg 92%
    13:00 +6°C° 0.3 mm 1 m/s 595 mmHg 94%
    14:00 +6°C° 0.3 mm 1 m/s 594 mmHg 94%
    15:00 +5°C° 0.3 mm 2 m/s 594 mmHg 94%
    16:00 +5°C° 0.3 mm 2 m/s 594 mmHg 94%
    17:00 +5°C° 0.7 mm 2 m/s 594 mmHg 95%
    18:00 +5°C° 0.7 mm 1 m/s 594 mmHg 96%
    19:00 +5°C° 0.7 mm 1 m/s 594 mmHg 98%
    20:00 +4°C° 1.6 mm 1 m/s 594 mmHg 98%
    21:00 +3°C° 1.6 mm 2 m/s 595 mmHg 98%
    22:00 +2°C° 1.6 mm 2 m/s 595 mmHg 99%
    23:00 +2°C° 1.5 mm 2 m/s 595 mmHg 98%
    Arată mai mult